Weather Roundup
Issued by NWS

Home | Current Version | Previous Version | Text Only | Print | Product List | Glossary On
Versions: 1 2 3 4 5 6 7 8 9 10 11 12 13 14 15 16 17 18 19 20 21 22 23 24 25 26 27 28 29 30 31 32 33 34 35 36 37 38 39 40 41 42 43 44 45 46 47 48 49 50
865
NZUS93 KARX 020459
HRRWXR

CURRENT HOURLY OBSERVATIONS ACROSS
MUCH OF THE UPPER MISSISSIPPI VALLEY
NATIONAL WEATHER SERVICE LA CROSSE WI
1100 PM CST THU DEC 01 2016


...SOUTHEAST MINNESOTA...


CITY           SKY/WX    TMP DP  RH WIND       PRES   REMARKS
ROCHESTER      CLOUDY    34  30  85 NW9       29.98R WCI  27
ROCHESTER/MAYO CLOUDY    35  31  86 W8        29.99R WCI  29
WINONA         CLOUDY    36  32  87 NW6       29.99R WCI  31
AUSTIN         CLOUDY    34  30  86 W8        29.99R WCI  27
ALBERT LEA     CLOUDY    37  36  93 W7        30.00R WCI  32
DODGE CENTER   CLOUDY    34  30  86 NW8       29.98R WCI  27
PRESTON        CLOUDY    33  30  87 NW7       29.99R WCI  27
OWATONNA       CLOUDY    34  28  80 NW7       30.00R WCI  28
FARIBAULT      CLOUDY    36  25  64 NW6       30.01R WCI  31
$$

...ELSEWHERE IN MINNESOTA...


CITY           SKY/WX    TMP DP  RH WIND       PRES   REMARKS
MINNEAPOLIS    CLOUDY    33  23  66 NW9       30.02R WCI  25
INTNL FALLS    CLOUDY    26  21  81 NW6       30.01R WCI  19
DULUTH         CLOUDY    28  22  78 NW10      29.96R WCI  19
RED WING       CLOUDY    36  23  60 NW6       30.00R WCI  31
REDWOOD FALLS  CLOUDY    31  25  78 N10       30.05R WCI  22
MANKATO        CLOUDY    33  30  88 NW10      30.03R WCI  25
WORTHINGTON    CLOUDY    32  29  88 NW7       30.04R WCI  26
FAIRMONT       CLOUDY    33  29  85 NW10      30.04R WCI  25
$$

...SOUTHWEST WISCONSIN...


CITY           SKY/WX    TMP DP  RH WIND       PRES   REMARKS
LA CROSSE      CLOUDY    38  34  85 NW7       29.98R WCI  33
PRAIRIE DU CHI CLOUDY    37  32  84 W5        30.00R WCI  33
BOSCOBEL       CLOUDY    37  33  85 SW5       29.99R WCI  33
LONE ROCK      NOT AVBL
PLATTEVILLE    CLOUDY    35  35 100 W7        29.99R WCI  29
FORT MC COY    CLOUDY    35  32  87 W5        29.97R WCI  31
MAUSTON-NEW LI CLOUDY    35  31  87 NW7       29.95R WCI  29
VIROQUA        CLOUDY    32  32 100 NW6       29.95S WCI  27
WIS DELLS      CLOUDY    35  32  90 W7        29.94R WCI  29
$$

...ELSEWHERE IN WISCONSIN...


CITY           SKY/WX    TMP DP  RH WIND       PRES   REMARKS
MILWAUKEE      CLOUDY    38  33  82 W8        29.94R WCI  32
MADISON        CLOUDY    36  31  82 W6        29.96R WCI  31
GREEN BAY      CLOUDY    36  27  69 NW10      29.92R WCI  28
EAU CLAIRE     NOT AVBL
BLACK RVR FLS  CLOUDY    35  25  67 NW7       29.97R WCI  29
MEDFORD        CLOUDY    29  23  76 NW12      29.91R WCI  20
WAUSAU         CLOUDY    32  25  75 NW10      29.91R WCI  24
WIS RAPIDS     CLOUDY    33  24  69 NW7G18    29.95R WCI  27
MARSHFIELD       N/A     31  23  72 NW9       29.92R WCI  23
RICE LAKE      CLOUDY    31  24  74 NW7       29.99R WCI  24
$$

...NORTHEAST IOWA...


CITY           SKY/WX    TMP DP  RH WIND       PRES   REMARKS
WATERLOO       CLOUDY    35  32  88 W6        30.03R WCI  30
DUBUQUE        CLOUDY    35  33  92 W9        30.00R WCI  28
DECORAH        CLOUDY    36  34  93 W5        29.98R WCI  32
MASON CITY     CLOUDY    33  32  96 W8        30.03R WCI  26
CHARLES CITY   CLOUDY    34  34 100 W7        30.01R WCI  28
OELWEIN        MIX PCPN  36  34  93 W9        30.02R WCI  29
$$

...ELSEWHERE IN IOWA...


CITY           SKY/WX    TMP DP  RH WIND       PRES   REMARKS
DES MOINES     FLURRIES  37  29  72 NW7       30.07R WCI  32
IOWA CITY      CLOUDY    37  32  82 W8        30.06R WCI  31
FORT DODGE     CLOUDY    34  30  86 W6        30.06R WCI  29
MARSHALLTOWN   CLOUDY    35  33  92 W10       30.04R WCI  27
CEDAR RAPIDS   LGT RAIN  35  34  96 W10       30.03R WCI  27
$$

...NORTHERN ILLINOIS...


CITY           SKY/WX    TMP DP  RH WIND       PRES   REMARKS
CHICAGO-OHARE  CLOUDY    37  32  82 W8        29.98R WCI  31
CHICAGO-MIDWAY DRIZZLE   38  32  79 W10       30.00R WCI  31
MOLINE         CLOUDY    38  31  76 W10       30.04R WCI  31
ROCKFORD       CLOUDY    36  33  89 W6        30.01R WCI  31
PEORIA         CLOUDY    37  30  75 W7        30.06R WCI  32
$$

NOTE: "FAIR" INDICATES FEW OR NO CLOUDS BELOW 12,000 FEET WITH NO
SIGNIFICANT WEATHER AND/OR OBSTRUCTIONS TO VISIBILITY. WIND
SPEEDS ARE IN MILES-PER-HOUR.




USA.gov is the U.S. government's official web portal to all federal, state and local government web resources and services.